Zurück zum Katalog

CZ-6A DEB

AktivPO
NORAD 61816·DEBRIS·🇨🇳 China

Gestartet Aug 6, 2024 von Taiyuan Satellite Launch Center

Loading…

Nächste Überflüge (nächste 24 Stunden)

TLE

AktuellSource: Space-Track

Epoche: Sep 14, 2026, 00:46 UTC

1 61816U 24140ACG 26257.03220408  .00001926  00000-0  71114-3 0  9999
2 61816  89.1522 277.6357 0060580 290.9459  68.5260 14.31134466104909

Verfolge CZ-6A DEB in Echtzeit mit AllMySat

Download on the App Store